Location: Piedmont
(45.8748°N, 74.1254°W)
Time: 14:01:50
(UTC+00:00)

N. Korean satellite - Pass Details

Date: 11 December 2021
Orbit: 446 x 491 km, 97.3° (Epoch: 18 January)

Event Time Altitude Azimuth Distance (km) Brightness Sun altitude
Rises 10:48:35 0° 3° (N) 2,460 10.0 -16.5°
Reaches altitude 10° 10:50:43 10° 354° (N) 1,583 8.9 -16.2°
Enters shadow 10:50:46 10° 354° (N) 1,568 8.9 -16.2°
Exits shadow 10:55:08 24° 245° (WSW) 972 7.7 -15.4°
Drops below altitude 10° 10:56:53 10° 223° (SW) 1,578 8.9 -15.1°
Sets 10:59:01 0° 214° (SSW) 2,450 10.0 -14.8°
